Theta_e
351 352 353 354 350 350 348 339 340 348 350 349 346 343 342 343 346 344 346 346 345 344 346 344 343 345 347 350 350 350 349 349 348 350 349 350 344 347 352 350 347 345 349
354 356 356 357 354 349 346 345 335 346 346 345 344 343 341 343 347 345 347 346 349 344 346 348 349 349 345 351 351 351 350 350 347 348 347 348 349 353 350 344 349 348 347
352 353 357 356 357 353 350 342 339 347 347 345 341 341 342 345 343 342 344 349 350 349 347 350 349 350 349 348 348 351 349 350 349 348 347 348 349 349 349 351 352 350 350
350 353 355 355 348 351 347 347 345 348 347 348 345 341 342 343 344 345 349 348 345 341 346 350 350 351 349 348 351 350 350 349 350 349 348 348 349 349 351 350 349 349 348
348 351 350 344 343 344 347 345 350 350 349 349 348 345 342 338 345 348 348 347 342 341 346 350 350 351 346 349 350 349 348 351 347 347 347 348 349 349 349 349 350 349 349
343 344 344 341 337 351 352 352 354 341 348 349 349 348 344 342 342 342 345 348 345 341 343 350 351 348 343 341 342 347 349 350 348 347 348 349 350 350 348 348 348 348 347
335 337 340 342 341 331 331 346 354 352 351 348 350 350 349 344 343 343 345 344 348 349 349 350 351 349 345 342 341 344 341 341 342 347 348 350 347 349 349 349 349 348 348
326 331 333 336 338 339 330 325 326 340 351 350 351 352 351 349 345 343 344 344 346 348 349 351 351 351 350 348 348 347 341 341 342 344 345 345 343 346 348 346 346 344 345
331 332 332 331 333 337 339 334 324 323 327 340 352 353 354 352 348 344 343 344 344 341 342 347 348 350 342 343 342 350 349 349 348 345 345 345 342 340 342 344 347 344 342
327 325 329 323 323 329 334 338 323 322 328 339 328 348 354 353 350 347 344 343 345 349 346 344 342 344 342 341 342 346 349 350 349 349 347 345 342 340 341 340 343 343 343
330 330 328 329 330 332 329 336 334 330 326 326 327 327 349 351 350 346 347 343 346 349 349 350 349 347 343 343 341 344 348 349 348 345 347 348 349 349 344 338 338 343 340
330 330 330 329 330 327 329 335 338 339 338 330 331 335 340 350 349 346 345 346 344 348 349 349 348 349 348 345 343 343 342 341 343 345 348 347 347 348 346 345 343 341 338
329 329 329 329 330 331 330 332 334 336 336 335 335 336 338 340 350 347 347 345 345 345 347 348 348 348 346 346 344 343 342 342 345 346 345 345 346 346 345 344 342 337 333
329 329 329 329 329 330 329 328 329 333 333 334 335 336 339 342 350 349 347 346 344 343 343 341 343 345 344 343 345 343 343 345 346 346 345 346 347 345 346 344 342 340 339
328 328 328 328 328 328 329 328 327 328 332 333 333 334 337 342 348 350 346 343 342 336 338 343 343 343 346 346 347 347 345 344 346 346 345 346 344 347 345 343 339 338 338
328 327 327 328 327 327 327 327 328 326 328 333 331 331 330 333 343 347 341 340 337 336 332 332 344 345 347 347 346 347 347 347 346 345 345 345 344 346 344 339 338 338 338
328 328 327 327 327 327 327 327 327 328 327 326 330 330 328 327 333 344 347 340 334 333 331 336 336 344 345 347 346 345 347 348 346 345 346 345 345 345 340 337 338 338 339
328 328 328 329 328 328 328 328 328 328 328 331 329 330 328 329 333 341 345 343 341 338 337 338 340 341 347 347 347 347 346 346 347 346 345 345 344 340 338 337 337 337 338
330 329 328 328 328 327 327 328 328 328 328 329 331 334 329 332 334 339 341 339 338 337 335 335 337 337 340 341 340 345 346 346 345 345 344 342 341 340 338 337 337 338 336
329 329 328 329 329 329 328 327 327 328 327 328 330 333 335 334 334 335 340 339 337 338 337 336 335 337 338 341 341 344 345 345 345 345 343 342 341 340 338 337 337 336 335
330 329 329 329 329 329 329 328 328 327 327 327 329 331 333 335 335 334 337 340 340 338 339 337 338 339 340 339 339 338 341 342 345 344 343 342 340 339 337 337 336 335 333
329 329 329 330 330 329 329 330 329 328 329 328 329 330 332 333 336 336 338 338 339 339 339 337 338 342 339 337 337 338 336 341 343 344 343 340 339 338 337 337 335 333 332
330 329 329 330 330 328 327 330 330 327 328 329 329 330 333 336 336 334 336 338 339 340 340 341 340 340 339 337 336 338 338 341 342 345 341 339 338 337 337 336 334 332 331
329 330 330 328 328 327 328 330 330 327 329 329 330 332 333 336 337 337 336 335 336 338 338 337 339 339 337 334 334 335 338 341 343 341 339 338 337 337 336 334 332 331 331
329 329 328 329 330 331 330 331 332 330 329 329 331 333 335 337 338 338 337 338 338 337 337 336 337 337 334 335 339 338 338 341 340 340 340 338 338 337 334 332 331 330 329
329 330 331 331 331 333 332 332 332 333 332 332 334 335 336 337 337 337 337 337 338 337 337 335 335 336 334 339 341 340 339 339 338 340 338 337 336 334 332 330 330 329 328
Wind_Speed
14 13 15 12 15 15 16 15 23 17 18 19 18 20 17 17 21 24 20 19 19 17 18 17 17 16 16 13 12 9 8 7 8 7 6 6 6 7 5 5 5 5 7
11 13 14 13 15 18 24 21 8 14 14 15 16 15 16 14 18 20 19 19 16 18 17 16 15 14 19 18 13 12 10 10 10 9 8 8 8 8 9 11 9 9 11
11 9 7 8 13 15 20 15 11 10 15 13 10 11 18 16 18 21 22 19 18 16 17 16 14 15 16 16 16 14 11 10 10 10 10 8 10 9 10 10 10 11 12
2 6 4 3 6 10 11 21 18 17 15 14 14 13 14 17 20 21 20 21 20 20 17 17 16 16 16 17 15 15 12 14 12 11 11 12 12 12 11 11 11 10 11
5 1 3 5 8 11 12 15 21 22 17 17 16 17 18 13 19 21 22 21 23 19 20 20 18 17 19 18 16 16 15 12 12 13 14 13 13 12 12 11 13 12 13
7 5 4 6 6 7 13 20 20 13 20 21 18 19 19 24 22 26 25 22 22 23 23 22 21 21 19 20 19 20 15 14 15 16 14 13 11 13 13 13 15 15 12
7 6 5 6 7 9 9 10 12 16 19 23 22 22 22 22 26 25 26 28 22 21 23 22 23 22 23 22 21 20 20 19 19 17 17 16 16 14 14 14 13 14 12
14 12 10 9 9 10 11 13 12 9 15 20 23 23 24 25 24 24 26 27 28 24 23 24 24 24 23 23 21 20 22 22 21 21 21 18 18 15 15 16 15 14 13
18 17 17 16 14 13 13 14 17 17 14 14 20 24 26 26 24 22 26 30 33 32 28 26 24 25 28 30 25 21 20 19 19 21 20 20 20 19 18 14 11 12 13
26 27 22 26 23 20 17 17 19 20 19 16 17 22 27 27 27 24 25 32 26 24 27 31 27 27 26 31 31 25 23 21 19 20 21 23 23 20 18 18 13 14 15
26 25 27 24 22 20 20 19 20 21 20 22 22 21 22 26 29 25 24 28 29 27 24 22 24 26 32 33 29 27 24 22 21 24 19 20 19 14 16 18 17 15 14
27 25 26 26 23 23 22 20 20 20 20 21 22 22 20 23 27 26 27 26 28 30 25 22 24 25 26 27 29 29 29 26 21 20 20 20 20 17 16 17 17 16 13
28 29 27 26 24 22 21 21 22 22 22 22 21 21 22 22 23 27 30 29 27 31 26 27 29 27 27 26 26 27 27 27 22 23 23 23 21 18 17 17 20 17 16
26 26 26 26 25 23 23 23 25 25 25 24 22 22 21 19 20 20 27 27 27 27 28 27 30 32 30 30 28 28 30 27 25 24 23 26 20 20 18 18 16 14 11
24 23 24 26 26 25 25 25 26 27 27 25 23 21 21 21 24 26 30 34 34 29 24 27 34 37 31 29 26 24 25 28 27 26 25 27 26 21 19 18 18 16 15
24 24 23 24 26 26 25 26 27 30 32 32 31 31 29 27 25 31 27 26 25 31 36 30 32 34 32 31 28 27 27 28 26 24 24 27 26 22 20 19 18 17 16
25 24 25 25 26 26 26 26 27 26 28 31 33 33 32 29 28 34 32 30 30 32 31 25 30 33 32 30 31 30 30 29 26 24 23 23 20 20 20 19 19 18 16
24 25 25 27 27 27 27 27 27 27 26 25 27 32 31 28 26 31 33 30 33 34 27 22 23 24 22 24 30 31 30 28 26 24 23 22 22 21 21 20 19 19 15
24 23 22 23 23 24 26 26 27 27 27 26 25 28 26 25 24 25 29 30 27 26 25 28 25 26 24 28 31 33 30 29 28 26 24 24 23 22 21 20 18 18 17
21 23 24 22 21 21 22 23 26 27 27 26 26 24 19 23 25 26 27 30 31 26 27 24 23 23 23 20 29 28 31 31 28 26 23 23 23 23 22 20 19 18 15
19 19 20 20 19 21 22 23 25 27 28 27 26 24 23 22 21 24 29 32 35 35 31 31 29 30 26 24 24 29 29 28 31 28 25 25 24 24 22 20 19 19 17
19 19 20 20 20 20 22 24 25 27 28 27 26 24 25 26 24 22 22 24 31 33 32 31 33 28 27 26 22 24 31 29 30 29 26 26 26 24 22 21 20 19 19
20 22 22 21 22 22 22 20 22 26 27 26 23 23 21 20 21 23 24 25 24 24 25 27 30 31 31 29 28 28 32 34 34 30 29 27 26 25 24 21 21 21 20
22 22 23 23 22 21 21 21 17 21 23 23 21 23 23 23 20 18 21 23 28 29 29 30 31 30 28 30 32 34 36 35 32 30 29 27 27 26 23 20 21 21 19
24 24 24 24 24 24 22 20 18 17 19 22 23 23 23 21 20 20 20 22 24 25 26 27 28 29 29 30 29 30 36 33 31 27 27 26 25 24 22 21 22 21 21
20 26 25 24 23 23 20 20 19 20 22 22 21 21 23 22 23 24 25 26 22 21 21 25 26 29 27 26 24 23 35 34 32 29 26 25 24 24 22 22 22 20 20
Wind_Direction
237 244 265 245 247 237 232 263 271 259 270 271 269 270 260 255 220 218 222 226 225 221 216 236 230 222 207 220 223 216 225 219 225 225 235 254 248 234 237 257 277 272 262
261 248 246 249 248 242 228 265 258 242 258 265 266 263 250 238 214 213 217 218 221 227 227 220 221 221 211 210 214 218 225 228 226 247 249 257 255 247 258 266 266 260 262
250 245 241 242 249 256 250 251 240 249 251 245 246 266 246 234 226 224 213 213 219 226 225 215 216 208 213 216 215 226 228 238 250 243 257 263 256 258 264 275 271 269 263
188 204 230 227 247 256 254 237 240 233 240 243 247 255 242 246 230 222 214 216 224 227 229 221 222 215 215 217 222 220 223 225 237 248 260 261 265 261 260 266 269 270 271
56 180 284 288 282 274 253 243 226 227 240 245 243 242 231 250 231 222 225 225 221 226 229 223 226 223 224 214 224 228 225 233 249 253 261 260 260 262 259 270 272 272 273
25 25 18 2 358 290 277 261 233 223 233 241 248 243 243 242 243 231 225 215 223 226 233 219 220 235 227 224 230 226 231 239 248 252 250 256 256 266 276 269 262 263 270
330 326 324 326 330 336 332 309 297 261 247 243 245 242 245 247 242 238 230 227 226 229 227 225 226 228 230 229 234 235 242 254 253 256 254 250 255 263 262 261 270 269 261
299 302 302 299 299 305 315 320 326 301 264 254 245 242 245 246 246 239 233 228 230 225 230 230 228 225 224 232 226 236 243 249 250 251 258 262 272 263 259 262 264 267 276
291 292 293 297 296 293 295 297 303 305 305 282 256 252 244 244 243 238 229 231 232 237 240 234 233 236 233 238 239 233 238 241 250 259 254 259 267 268 262 263 263 265 273
279 282 280 287 287 288 283 285 289 290 292 284 288 258 247 246 247 239 230 228 228 238 244 236 237 245 245 242 241 236 237 241 241 245 255 263 261 259 252 252 243 253 270
270 270 272 272 272 272 276 268 276 273 270 275 279 280 256 245 247 239 234 231 226 237 235 237 239 247 247 248 244 239 238 243 245 252 249 255 257 250 245 238 243 247 263
270 266 263 265 264 266 262 260 260 260 263 267 271 273 269 254 244 243 233 231 230 224 233 237 240 246 254 247 244 245 248 248 244 244 248 251 247 242 242 240 243 259 255
271 269 264 259 257 257 257 256 257 257 257 259 259 262 266 263 245 239 231 227 223 228 228 237 236 240 248 254 245 243 243 241 236 239 246 249 244 240 237 237 246 255 255
269 267 263 256 253 254 257 257 255 252 251 252 254 257 258 253 235 225 214 215 221 224 233 242 246 242 245 250 253 245 239 237 236 238 242 244 240 239 237 235 244 248 254
265 264 264 258 256 257 256 253 250 249 246 247 249 253 253 248 242 231 228 226 228 240 247 240 238 241 237 240 237 238 240 236 235 236 238 243 238 228 237 240 240 241 247
260 259 259 256 256 256 257 258 257 251 240 244 243 248 252 252 242 252 240 236 238 247 264 249 239 235 232 231 234 234 235 236 231 234 237 241 235 225 236 237 237 243 248
257 253 252 254 254 254 254 255 256 252 254 248 246 248 256 262 260 246 250 243 251 259 243 241 251 246 238 232 235 234 237 237 237 229 231 229 222 228 233 231 237 241 242
258 252 252 252 252 252 253 253 253 249 247 248 251 251 252 259 260 245 244 235 248 248 241 235 244 237 237 237 239 238 235 233 232 224 221 220 222 225 228 233 236 243 238
256 256 252 252 249 249 250 252 250 246 245 246 244 251 247 252 256 250 249 237 230 228 238 238 246 251 251 239 234 229 231 229 227 221 213 219 224 225 227 232 235 230 231
251 254 256 256 255 248 247 247 244 244 245 245 244 248 250 254 251 252 247 234 225 226 232 240 234 236 239 237 231 229 230 221 224 222 218 219 222 225 226 227 227 231 235
254 257 260 258 256 254 251 249 247 245 243 244 244 245 246 247 256 248 243 241 239 233 235 234 229 234 237 235 235 229 233 227 225 221 219 220 222 223 220 219 224 227 224
261 262 266 259 254 259 257 253 251 246 240 241 241 240 245 254 245 242 234 244 244 235 233 227 233 242 236 236 237 236 231 228 225 220 219 216 217 218 215 214 220 220 214
261 260 260 256 258 263 262 257 253 241 234 236 235 237 240 243 247 240 234 234 232 233 233 234 236 239 238 240 239 240 227 220 218 215 213 208 212 212 211 210 214 214 211
265 263 267 267 260 263 259 260 247 231 226 232 232 238 241 242 240 239 241 243 237 242 246 245 242 242 245 247 245 239 219 214 209 210 205 206 208 210 206 206 211 212 211
263 262 261 263 264 263 264 243 237 233 230 234 233 241 246 242 244 250 253 252 247 240 238 238 236 241 243 251 239 225 207 200 205 202 203 204 205 207 204 202 204 205 204
274 248 249 255 261 262 269 248 240 240 240 242 241 243 244 246 250 257 256 245 235 240 246 243 242 241 245 237 228 214 194 191 199 209 204 203 204 204 200 200 200 201 205